FW2996 Weather Reports


time (UTC)temp
C
wind
direction
speed
KPH
gust
KPH
rain 1hr
cm
rain 24hr
cm
rain mn
cm
humidity
%
barometer
mb
20260507005907 16 314 6.4 11.3 0.00 0.00 0.00 88 1054.2
20260507005403 16 0 3.2 4.8 0.00 0.00 0.00 88 1054.2
20260507004900 16 17 3.2 9.7 0.00 0.00 0.00 88 1054.7
20260507004357 16 33 3.2 11.3 0.00 0.00 0.00 88 1054.8
20260507003854 16 21 3.2 14.5 0.00 0.00 0.00 88 1054.2
20260507003349 16 19 4.8 9.7 0.00 0.00 0.00 88 1054.2
20260507002845 16 13 4.8 9.7 0.00 0.00 0.00 88 1053.9
20260507002341 16 22 3.2 11.3 0.00 0.00 0.00 87 1053.7
20260507001838 16 5 3.2 11.3 0.00 0.00 0.00 87 1054.1
20260507001335 16 339 8.0 14.5 0.00 0.00 0.00 87 1053.7
20260507000832 16 27 9.7 12.9 0.00 0.00 0.00 87 1053.6
20260507000328 16 11 1.6 11.3 0.00 0.00 0.00 88 1054.2
20260506235824 16 350 6.4 11.3 0.00 0.00 0.00 88 1053.9
20260506235320 16 16 6.4 17.7 0.00 0.00 0.00 88 1053.7
20260506234817 16 25 4.8 14.5 0.00 0.00 0.00 88 1053.7
20260506234315 16 8 6.4 9.7 0.00 0.00 0.00 88 1053.6
20260506233812 16 9 3.2 16.1 0.00 0.00 0.00 88 1053.7
20260506233308 16 355 3.2 20.9 0.00 0.00 0.00 87 1053.9
20260506232805 16 32 4.8 14.5 0.00 0.00 0.00 87 1053.9
20260506232300 16 14 3.2 9.7 0.00 0.00 0.00 88 1053.5
20260506231757 16 15 3.2 16.1 0.00 0.00 0.00 87 1053.3
20260506231255 16 7 6.4 11.3 0.00 0.00 0.00 88 1053.6
20260506230752 16 31 4.8 14.5 0.00 0.00 0.00 87 1053.5
20260506230249 16 4 4.8 12.9 0.00 0.00 0.00 88 1053.7
20260506225745 16 13 4.8 17.7 0.00 0.00 0.00 87 1053.6
20260506225242 16 357 3.2 12.9 0.00 0.00 0.00 87 1053.5
20260506224738 16 357 9.7 12.9 0.00 0.00 0.00 87 1053.8
20260506224236 16 351 6.4 12.9 0.00 0.00 0.00 87 1053.6
20260506223732 16 15 4.8 11.3 0.00 0.00 0.00 87 1053.6
20260506223227 16 23 4.8 6.4 0.00 0.00 0.00 86 1053.6
20260506222725 16 17 6.4 17.7 0.00 0.00 0.00 87 1053.5
20260506222220 16 349 4.8 20.9 0.00 0.00 0.00 87 1053.5
20260506221718 16 8 3.2 12.9 0.00 0.00 0.00 85 1053.7
20260506221216 16 23 4.8 12.9 0.00 0.00 0.00 85 1053.5
20260506220713 16 358 1.6 16.1 0.00 0.00 0.00 85 1053.2
20260506220208 16 20 3.2 12.9 0.00 0.00 0.00 85 1053.4
20260506215705 17 16 4.8 12.9 0.00 0.00 0.00 85 1053.4
20260506215200 16 348 8.0 14.5 0.00 0.00 0.00 86 1053.5
20260506214657 17 8 4.8 16.1 0.00 0.00 0.00 85 1053.5
20260506214154 16 21 6.4 16.1 0.00 0.00 0.00 86 1053.4
20260506213653 16 20 9.7 20.9 0.00 0.00 0.00 87 1053.5
20260506213150 16 15 4.8 22.5 0.00 0.00 0.00 87 1053.2
20260506212647 17 14 4.8 20.9 0.00 0.00 0.00 86 1053.2
20260506212141 17 27 3.2 22.5 0.00 0.00 0.00 86 1053.1
20260506211638 17 18 6.4 11.3 0.00 0.00 0.00 85 1053.2
20260506211134 17 347 9.7 17.7 0.00 0.00 0.00 85 1053.2
20260506210631 17 6 9.7 20.9 0.00 0.00 0.00 85 1053.5
20260506210128 17 7 12.9 22.5 0.00 0.00 0.00 85 1053.4
20260506205625 17 17 11.3 17.7 0.00 0.00 0.00 86 1053.4
20260506205119 17 23 6.4 20.9 0.00 0.00 0.00 86 1053.4
20260506204618 18 357 11.3 20.9 0.00 0.00 0.00 85 1053.4
20260506204115 18 21 6.4 9.7 0.00 0.00 0.00 83 1053.4
20260506203613 19 27 11.3 22.5 0.00 0.00 0.00 83 1053.3
20260506203109 18 25 4.8 11.3 0.00 0.00 0.00 86 1053.2
20260506202607 18 19 9.7 24.1 0.00 0.00 0.00 86 1053.4
20260506202103 18 35 9.7 16.1 0.00 0.00 0.00 84 1053.5
20260506201601 18 2 6.4 17.7 0.00 0.00 0.00 84 1053.5
20260506201057 20 9 11.3 17.7 0.00 0.00 0.00 83 1053.4
20260506200553 20 15 6.4 14.5 0.00 0.00 0.00 83 1053.4
20260506200050 20 9 6.4 12.9 0.00 0.00 0.00 84 1053.3
20260506195547 20 19 4.8 12.9 0.00 0.00 0.00 84 1053.1
20260506195038 20 10 6.4 11.3 0.00 0.00 0.00 82 1053.5
20260506194536 19 349 4.8 20.9 0.00 0.00 0.00 85 1053.1
20260506194032 20 350 14.5 25.7 0.00 0.00 0.00 84 1053.2
20260506193530 20 15 9.7 14.5 0.00 0.00 0.00 84 1053.2
20260506193027 19 5 8.0 12.9 0.00 0.00 0.00 85 1053.2
20260506192523 19 343 12.9 24.1 0.00 0.00 0.00 86 1053.1
20260506192019 19 3 9.7 17.7 0.00 0.00 0.00 86 1052.9
20260506191516 20 5 9.7 25.7 0.00 0.00 0.00 85 1053.2
20260506191012 20 22 14.5 22.5 0.00 0.00 0.00 84 1053.1
20260506190510 21 352 4.8 25.7 0.00 0.00 0.00 86 1053.1
20260506190007 22 12 4.8 17.7 0.00 0.00 0.00 85 1053.2
20260506185504 22 353 9.7 16.1 0.00 0.00 0.00 82 1053.4
20260506185000 23 7 9.7 14.5 0.00 0.00 0.00 80 1053.1
20260506184458 24 9 6.4 16.1 0.00 0.00 0.00 77 1052.9
20260506183954 25 10 8.0 12.9 0.00 0.00 0.00 75 1053.1
20260506183450 25 17 3.2 11.3 0.00 0.00 0.00 75 1052.9
20260506182947 25 27 0.0 3.2 0.00 0.00 0.00 76 1052.8
20260506182444 26 13 4.8 6.4 0.00 0.00 0.00 74 1052.7
20260506181941 26 76 1.6 6.4 0.00 0.00 0.00 73 1052.6
20260506181439 25 93 3.2 6.4 0.00 0.00 0.00 75 1052.7
20260506180936 25 106 3.2 4.8 0.00 0.00 0.00 76 1052.9
20260506180432 24 47 1.6 6.4 0.00 0.00 0.00 79 1052.8
20260506175929 24 25 3.2 4.8 0.00 0.00 0.00 76 1052.9
20260506175425 25 35 1.6 3.2 0.00 0.00 0.00 76 1052.9
20260506174922 23 41 6.4 9.7 0.00 0.00 0.00 78 1052.8
20260506174420 23 115 4.8 11.3 0.00 0.00 0.00 79 1052.7
20260506173917 23 120 3.2 11.3 0.00 0.00 0.00 80 1052.7
20260506173414 23 128 1.6 3.2 0.00 0.00 0.00 79 1052.6
20260506172911 22 50 1.6 6.4 0.00 0.00 0.00 80 1052.8
20260506172407 22 84 3.2 6.4 0.00 0.00 0.00 78 1053.1
20260506171905 22 142 4.8 12.9 0.00 0.00 0.00 79 1052.9
20260506171402 22 73 3.2 11.3 0.00 0.00 0.00 81 1053.1
20260506170859 22 42 3.2 6.4 0.00 0.00 0.00 80 1052.9
20260506170355 21 81 9.7 12.9 0.00 0.00 0.00 82 1053.0
20260506165849 20 32 1.6 6.4 0.00 0.00 0.00 84 1052.9
20260506165346 20 148 4.8 11.3 0.00 0.00 0.00 83 1053.1
20260506164842 20 50 3.2 9.7 0.00 0.00 0.00 84 1053.2
20260506164339 20 45 3.2 12.9 0.00 0.00 0.00 86 1053.4
20260506163837 19 79 0.0 16.1 0.00 0.00 0.00 87 1053.5
20260506163331 19 34 3.2 9.7 0.00 0.00 0.00 85 1053.7
20260506162827 18 94 4.8 9.7 0.00 0.00 0.00 86 1053.6
20260506162325 18 345 6.4 16.1 0.00 0.00 0.00 86 1053.7
20260506161817 18 33 1.6 6.4 0.00 0.00 0.00 90 1053.4
20260506161314 17 335 6.4 14.5 0.00 0.00 0.00 91 1053.9
20260506160811 17 20 4.8 14.5 0.00 0.00 0.00 92 1054.3
20260506160308 18 358 6.4 20.9 0.00 0.00 0.00 91 1054.6
20260506155807 18 21 6.4 16.1 0.00 0.00 0.00 91 1054.7
20260506155306 18 15 8.0 14.5 0.00 0.00 0.00 91 1054.6
20260506153415 22 18 3.2 11.3 0.00 0.00 0.00 87 1053.2
20260506152913 25 67 1.6 3.2 0.00 0.00 0.00 89 1053.0
20260506152409 25 160 0.0 0.0 0.00 0.00 0.00 89 1053.0
20260506151908 24 160 0.0 0.0 0.00 0.00 0.00 90 1052.8
20260506151404 24 160 1.6 3.2 0.00 0.00 0.00 90 1052.3
20260506150902 24 149 1.6 3.2 0.00 0.00 0.00 90 1052.7
20260506150358 24 148 3.2 4.8 0.00 0.00 0.00 90 1052.4
20260506145855 24 146 3.2 3.2 0.00 0.00 0.00 90 1052.4
20260506145351 24 188 1.6 3.2 0.00 0.00 0.00 90 1052.4
20260506144849 24 134 3.2 6.4 0.00 0.00 0.00 90 1052.1
20260506144345 24 153 3.2 11.3 0.00 0.00 0.00 90 1051.9
20260506143844 24 178 4.8 6.4 0.00 0.00 0.00 90 1052.0
20260506143340 24 168 6.4 11.3 0.00 0.00 0.00 91 1051.9
20260506142839 24 188 4.8 6.4 0.00 0.00 0.00 91 1052.0
20260506142336 23 141 6.4 9.7 0.00 0.00 0.00 93 1051.8
20260506141834 23 138 6.4 11.3 0.00 0.00 0.00 93 1051.3
20260506141332 23 142 3.2 6.4 0.00 0.00 0.00 95 1051.3
20260506140830 23 126 3.2 9.7 0.00 0.00 0.00 96 1051.5
20260506140327 23 122 6.4 6.4 0.00 0.00 0.00 95 1051.9
20260506135824 23 123 1.6 4.8 0.00 0.00 0.00 96 1052.0
20260506135320 23 123 1.6 1.6 0.00 0.00 0.00 96 1051.8
20260506134817 23 124 0.0 0.0 0.00 0.00 0.00 97 1051.5
20260506134313 22 124 6.4 9.7 0.00 0.00 0.00 97 1051.3
20260506133810 22 129 8.0 9.7 0.00 0.00 0.00 96 1051.1
20260506133307 23 115 3.2 4.8 0.00 0.00 0.00 97 1051.2
20260506132804 22 124 6.4 9.7 0.00 0.00 0.00 97 1051.2
20260506132301 23 142 4.8 9.7 0.00 0.00 0.00 97 1051.1
20260506131759 23 122 4.8 6.4 0.00 0.00 0.00 96 1051.2
20260506131254 22 131 3.2 6.4 0.00 0.00 0.00 97 1050.8
20260506130751 22 119 4.8 6.4 0.00 0.00 0.00 97 1050.7
20260506130248 22 119 3.2 6.4 0.00 0.00 0.00 97 1050.8
20260506125746 22 116 4.8 4.8 0.00 0.00 0.00 97 1050.6
20260506125244 22 116 1.6 4.8 0.00 0.00 0.00 98 1050.5
20260506124742 22 113 3.2 4.8 0.00 0.00 0.00 98 1050.5
20260506124240 22 126 6.4 6.4 0.00 0.00 0.00 98 1050.5
20260506123737 22 119 3.2 6.4 0.00 0.00 0.00 98 1050.5
20260506123236 22 109 1.6 3.2 0.00 0.00 0.00 98 1050.4
20260506122732 22 168 3.2 4.8 0.00 0.00 0.00 98 1050.3
20260506122229 22 170 3.2 3.2 0.00 0.00 0.00 98 1050.3
20260506121728 22 227 0.0 3.2 0.00 0.00 0.00 98 1050.3
20260506121224 22 227 0.0 0.0 0.00 0.00 0.00 98 1050.6
20260506120722 22 227 0.0 0.0 0.00 0.00 0.00 98 1050.5
20260506120219 22 227 0.0 0.0 0.00 0.00 0.00 98 1050.4
20260506115717 22 227 0.0 0.0 0.00 0.00 0.00 98 1050.4
20260506115215 22 227 0.0 0.0 0.00 0.00 0.00 97 1050.6
20260506114712 22 227 0.0 1.6 0.00 0.00 0.00 97 1050.4
20260506114209 22 227 0.0 0.0 0.00 0.00 0.00 97 1050.5
20260506113708 22 227 0.0 0.0 0.00 0.00 0.00 97 1050.4
20260506113205 22 227 0.0 0.0 0.00 0.00 0.00 97 1050.4
20260506112701 22 227 0.0 0.0 0.00 0.00 0.00 97 1050.3
20260506112159 22 228 0.0 0.0 0.00 0.00 0.00 96 1050.5
20260506111656 22 227 0.0 0.0 0.00 0.00 0.00 96 1050.5
20260506111154 22 227 0.0 0.0 0.00 0.00 0.00 96 1050.3
20260506110651 22 227 0.0 0.0 0.00 0.00 0.00 96 1050.4
20260506110148 22 227 0.0 0.0 0.00 0.00 0.00 96 1050.2
20260506105644 22 227 0.0 0.0 0.00 0.00 0.00 96 1050.5
20260506105141 22 227 0.0 0.0 0.00 0.00 0.00 96 1050.3
20260506104640 22 228 0.0 0.0 0.00 0.00 0.00 96 1050.0
20260506104137 22 227 1.6 1.6 0.00 0.00 0.00 96 1050.3
20260506103634 23 228 0.0 1.6 0.00 0.00 0.00 96 1050.2
20260506103131 23 156 0.0 3.2 0.00 0.00 0.00 96 1050.2
20260506102629 23 158 0.0 3.2 0.00 0.00 0.00 96 1050.1
20260506102126 23 152 3.2 4.8 0.00 0.00 0.00 96 1050.0
20260506101623 23 176 4.8 9.7 0.00 0.00 0.00 96 1050.0
20260506101119 22 151 1.6 4.8 0.00 0.00 0.00 96 1049.7
20260506100618 22 184 1.6 9.7 0.00 0.00 0.00 96 1049.9
20260506100116 22 161 3.2 4.8 0.00 0.00 0.00 96 1049.7
20260506095615 22 172 0.0 3.2 0.00 0.00 0.00 97 1049.7
20260506095111 22 206 1.6 6.4 0.00 0.00 0.00 97 1049.7
20260506094608 22 186 3.2 9.7 0.00 0.00 0.00 97 1049.8
20260506094106 22 140 1.6 4.8 0.00 0.00 0.00 98 1049.7
20260506093604 22 157 0.0 4.8 0.00 0.00 0.00 98 1049.5
20260506093101 22 180 3.2 9.7 0.00 0.00 0.00 98 1049.4
20260506092559 22 171 3.2 6.4 0.00 0.00 0.00 98 1049.5
20260506092055 22 200 6.4 9.7 0.00 0.00 0.00 98 1049.6
20260506091554 22 168 4.8 17.7 0.00 0.00 0.00 98 1049.5
20260506091051 22 163 3.2 14.5 0.00 0.00 0.00 97 1049.4
20260506090549 23 186 6.4 6.4 0.00 0.00 0.00 96 1049.4
20260506090045 23 183 6.4 17.7 0.00 0.00 0.00 96 1049.1
20260506085542 23 201 8.0 14.5 0.00 0.00 0.00 95 1049.1
20260506085038 23 177 3.2 11.3 0.00 0.00 0.00 95 1049.3
20260506084535 23 170 3.2 6.4 0.00 0.00 0.00 95 1049.1
20260506084031 23 176 3.2 3.2 0.00 0.00 0.00 95 1049.2
20260506083529 23 199 1.6 9.7 0.00 0.00 0.00 95 1049.1
20260506083026 23 142 6.4 11.3 0.00 0.00 0.00 95 1049.4
20260506082523 23 203 4.8 9.7 0.00 0.00 0.00 95 1049.3
20260506082018 23 150 3.2 11.3 0.00 0.00 0.00 95 1049.1
20260506081517 23 184 3.2 9.7 0.00 0.00 0.00 95 1049.3
20260506081014 23 186 8.0 14.5 0.00 0.00 0.00 95 1049.4
20260506080511 23 190 6.4 14.5 0.00 0.00 0.00 94 1049.4
20260506073455 23 148 6.4 11.3 0.00 0.00 0.00 93 1049.5
20260506072952 23 171 8.0 16.1 0.00 0.00 0.00 93 1049.5
20260506072449 23 197 8.0 11.3 0.00 0.00 0.00 93 1049.7
20260506071947 23 186 6.4 14.5 0.00 0.00 0.00 93 1049.8
20260506071444 23 128 6.4 16.1 0.00 0.00 0.00 92 1049.7
20260506070941 23 196 6.4 12.9 0.00 0.00 0.00 92 1049.9
20260506070438 23 195 4.8 6.4 0.00 0.00 0.00 92 1049.9
20260506062416 23 208 3.2 12.9 0.00 0.00 0.00 93 1049.8
20260506061911 23 212 6.4 16.1 0.00 0.00 0.00 93 1049.7
20260506061408 23 156 6.4 14.5 0.00 0.00 0.00 93 1049.8
20260506060906 23 186 3.2 9.7 0.00 0.00 0.00 93 1049.8
20260506060404 23 163 6.4 12.9 0.00 0.00 0.00 93 1049.8
20260506051336 23 161 9.7 16.1 0.00 0.00 0.00 93 1049.9
20260506050833 23 151 8.0 12.9 0.00 0.00 0.00 92 1049.9
20260506050330 23 217 6.4 14.5 0.00 0.00 0.00 92 1049.9
20260506044821 23 165 3.2 4.8 0.00 0.00 0.00 93 1049.9
20260506044319 23 185 4.8 14.5 0.00 0.00 0.00 93 1049.9
20260506043816 23 180 9.7 14.5 0.00 0.00 0.00 93 1050.0
20260506043313 23 148 3.2 6.4 0.00 0.00 0.00 93 1049.9
20260506042811 23 176 9.7 16.1 0.00 0.00 0.00 93 1049.9
20260506042310 23 168 3.2 14.5 0.00 0.00 0.00 93 1049.9
20260506041809 23 182 4.8 11.3 0.00 0.00 0.00 93 1050.0
20260506041305 23 137 4.8 9.7 0.00 0.00 0.00 93 1049.7
20260506040802 23 148 9.7 14.5 0.00 0.00 0.00 93 1049.6
20260506040259 23 163 3.2 9.7 0.00 0.00 0.00 93 1049.7
20260506035756 23 140 4.8 14.5 0.00 0.00 0.00 93 1049.7
20260506035253 23 178 6.4 9.7 0.00 0.00 0.00 93 1049.6
20260506034750 23 132 8.0 14.5 0.00 0.00 0.00 93 1049.4
20260506034247 23 161 8.0 12.9 0.00 0.00 0.00 93 1049.5
20260506033744 23 164 4.8 9.7 0.00 0.00 0.00 92 1049.4
20260506033241 23 153 4.8 6.4 0.00 0.00 0.00 92 1049.4
20260506032738 23 136 3.2 14.5 0.00 0.00 0.00 91 1049.4
20260506032235 23 216 6.4 9.7 0.00 0.00 0.00 91 1049.2
20260506031731 23 161 3.2 9.7 0.00 0.00 0.00 91 1049.2
20260506031229 24 132 3.2 4.8 0.00 0.00 0.00 91 1049.0
20260506030727 24 155 8.0 11.3 0.00 0.00 0.00 90 1049.0
20260506030224 24 126 9.7 12.9 0.00 0.00 0.00 90 1048.9
20260506025721 24 163 3.2 9.7 0.00 0.00 0.00 89 1048.8
20260506025217 24 145 4.8 12.9 0.00 0.00 0.00 89 1048.8
20260506024714 24 131 3.2 6.4 0.00 0.00 0.00 88 1049.0
20260506024211 25 142 3.2 9.7 0.00 0.00 0.00 88 1048.6
20260506023707 25 147 3.2 12.9 0.00 0.00 0.00 88 1048.8
20260506023205 24 177 3.2 6.4 0.00 0.00 0.00 88 1048.5
20260506022702 25 152 3.2 6.4 0.00 0.00 0.00 87 1048.4
20260506022159 25 155 3.2 6.4 0.00 0.00 0.00 87 1048.4
20260506021657 25 144 3.2 4.8 0.00 0.00 0.00 87 1048.3
20260506021154 25 142 4.8 4.8 0.00 0.00 0.00 87 1048.1
20260506020651 25 143 3.2 6.4 0.00 0.00 0.00 87 1048.0
20260506020148 25 159 6.4 11.3 0.00 0.00 0.00 87 1048.0
20260506015646 25 157 6.4 9.7 0.00 0.00 0.00 86 1048.0
20260506015143 25 154 8.0 12.9 0.00 0.00 0.00 86 1047.8
20260506014635 25 136 4.8 9.7 0.00 0.00 0.00 86 1047.6
20260506014130 25 155 1.6 6.4 0.00 0.00 0.00 86 1047.6
20260506013629 25 131 6.4 9.7 0.00 0.00 0.00 85 1047.6
20260506013125 25 150 6.4 6.4 0.00 0.00 0.00 85 1047.6
20260506012621 25 152 4.8 11.3 0.00 0.00 0.00 85 1047.6
20260506012117 25 134 3.2 6.4 0.00 0.00 0.00 84 1047.4
20260506011615 25 135 4.8 6.4 0.00 0.00 0.00 84 1047.5
20260506011111 26 162 4.8 9.7 0.00 0.00 0.00 83 1047.8
20260506010605 26 137 3.2 6.4 0.00 0.00 0.00 82 1047.6